Simultaneous Nadir Overpasses (SNOs) Predictions

Prediction of SNOs between NOAA-19 and TERRA Satellite Orbit:

Table of predicted SNOs for the next 14.0 days since TLE Epoch: 11/20/2021
Index Date (NOAA-19) Time (NOAA-19) Lat,Lon (NOAA-19) SZA (NOAA-19 ) Date (TERRA) Time (TERRA) Lat,Lon (TERRA) SZA (TERRA ) Distance(km) Time Diff (sec)
1 11/21/2021 23:10:10 80.53,-132.51 102.57 11/21/2021 23:10:51 80.54,-132.56 102.60 2.20 41
2 11/22/2021 00:01:13 -80.52, 34.78 77.42 11/22/2021 00:00:19 -80.51, 34.70 77.46 2.37 54
3 11/24/2021 04:43:19 -80.54, -36.04 77.00 11/24/2021 04:44:33 -80.53, -36.18 76.99 3.00 74
4 11/24/2021 05:34:15 80.53, 131.40 103.03 11/24/2021 05:33:59 80.53, 131.49 103.02 1.69 16
5 11/26/2021 11:07:24 -80.54,-131.99 76.57 11/26/2021 11:07:40 -80.54,-131.81 76.55 3.20 16
6 11/26/2021 11:58:19 80.53, 35.65 103.46 11/26/2021 11:57:07 80.51, 35.52 103.41 2.75 72
7 11/28/2021 16:40:24 80.54, -35.02 103.83 11/28/2021 16:41:20 80.56, -35.11 103.86 2.61 56
8 11/28/2021 17:31:28 -80.53, 132.38 76.16 11/28/2021 17:30:48 -80.52, 132.21 76.20 3.29 40
9 11/30/2021 23:04:29 80.55,-131.15 104.18 11/30/2021 23:04:28 80.53,-131.13 104.17 1.33 1
10 12/03/2021 04:37:39 -80.55, -34.56 75.53 12/03/2021 04:38:09 -80.54, -34.47 75.52 2.11 30



Historial Predications of SNOs between NOAA-19 and TERRA
